Location: Moscow
(38.3171°N, 79.0889°W)
Time: 02:18:28
(UTC+00:00)

SWARM A - Pass Details

Date: 07 November 2025
Orbit: 426 x 429 km, 87.3° (Epoch: 08 December)

Event Time Altitude Azimuth Distance (km) Brightness Sun altitude
Rises 22:49:07 0° 5° (N) 2,408 7.8 -8.1°
Reaches altitude 10° 22:51:13 10° 11° (N) 1,535 6.8 -8.5°
Maximum altitude 22:54:26 48° 87° (E) 568 4.4 -9.1°
Drops below altitude 10° 22:57:38 10° 163° (SSE) 1,517 6.9 -9.7°
Sets 22:59:41 0° 169° (S) 2,377 8.0 -10.1°
